[[{"header":{"parameterUnit":"m.s-1","parameterCategory":1,"la1":30.2991,"la2":30.254,"lo1":-89.0895,"lo2":-89.0444,"dy":0.0017,"dx":0.0017,"nx":28,"ny":28,"refTime":"2025-03-20T09:00:00:Z","depth":0,"parameterNumber":2,"parameterNumberName":"U-component_of_WINDS"},"data":[0,0,0,0,0,0,0,0,0,0,0,0,0,0,0,0,0,0,0,0,0,0,0,0,0,0,0,0,0,0,0,0,0,0,0,0,0,0,0,0,0,0,0,0,0,0,0,0,0,0,0,0,0,0,0,0,0,0,6.4174,6.4176,0,6.4304,6.4305,6.4307,6.4248,6.4244,6.4241,6.4238,6.4369,6.4375,6.4381,0,0,0,0,0,0,0,0,0,0,0,0,0,6.3875,6.3881,6.4174,6.4176,6.4177,6.4304,6.4305,6.4307,6.4248,6.4244,6.424,6.4237,6.4366,6.4374,6.4382,0,0,0,0,0,0,0,0,0,0,0,0,0,6.4005,6.3883,6.4174,6.4163,6.4164,6.4303,6.4305,6.4308,6.4249,6.4244,6.4239,6.4235,6.4364,6.4373,6.4383,6.454,0,0,6.4413,6.4417,0,0,0,0,0,0,0,0,6.3998,6.4016,6.4163,6.4164,6.4165,6.4255,6.4248,6.4385,6.425,6.4217,6.4238,6.4232,6.4334,6.4346,6.4381,6.4546,6.4552,6.4414,6.4419,6.4424,6.4426,0,0,0,0,0,0,0,6.3989,6.401,6.4225,6.4165,6.4166,6.4152,6.4165,6.4274,6.4301,6.4219,6.4215,6.4231,6.4334,6.4372,6.4384,6.4554,6.4413,6.4422,6.4428,6.4432,6.4856,6.4861,0,0,0,0,0,0,6.398,6.4003,6.4221,6.4229,6.4068,6.4161,6.4176,6.4231,6.43,6.4306,6.4235,6.4228,6.4358,6.4372,6.4388,6.4578,6.4424,6.4433,6.4438,6.4851,6.4857,6.4863,0,0,0,0,0,0,6.3974,6.4,6.4216,6.4115,6.4141,6.4172,6.4234,6.4236,6.4274,6.4312,6.4316,6.4269,6.4354,6.4374,6.4503,6.4581,6.4437,6.4446,6.4844,6.4853,6.486,6.4957,0,0,0,0,0,0,6.3966,6.3998,6.4058,6.4117,6.4147,6.4329,6.4238,6.4242,6.4291,6.4283,6.4345,6.4351,6.4352,6.4489,6.4513,6.4592,6.4453,6.4837,6.4848,6.4858,6.4947,6.4968,6.4985,0,0,0,0,0,6.3955,6.4079,6.4061,6.4088,6.4223,6.4334,6.4351,6.4351,6.4297,6.4358,6.4383,6.4349,6.4569,6.4503,6.4529,6.4612,6.4832,6.4845,6.4857,6.4939,6.4964,6.4985,0,0,0,0,0,0,6.4027,6.4087,6.4067,6.4214,6.427,6.4324,6.44,6.4377,6.4448,6.4437,6.4434,6.4449,6.4582,6.461,6.4535,6.4769,6.4692,6.4711,6.4746,6.477,6.4789,6.4779,6.4462,0,0,0,0,0,6.4061,6.4147,6.4193,6.4319,6.4348,6.437,6.4418,6.4413,6.447,6.4493,6.4527,6.4583,6.4665,6.4719,6.4796,6.4951,6.4965,6.5022,6.5041,6.5056,6.5072,6.5158,6.5184,6.4903,6.4903,6.4903,0,0,6.413,6.4173,6.4227,6.4335,6.4377,6.4466,6.4389,6.4486,6.4552,6.4507,6.4631,6.4659,6.4721,6.4865,6.4929,6.4892,6.5153,6.5072,6.5084,6.5091,6.5173,6.5199,6.5223,6.4912,6.491,6.4909,0,0,6.4301,6.4343,6.4452,6.4497,6.4563,6.4577,6.4603,6.4662,6.4678,6.4803,6.4772,6.4851,6.4992,6.5038,6.508,6.5273,6.5244,6.5298,6.5397,6.5481,6.5503,6.5522,6.5592,6.5617,6.5313,6.5314,6.5314,0,6.4379,6.4512,6.4511,6.4612,6.466,6.4626,6.4737,6.478,6.4867,6.4902,6.4859,6.5037,6.5077,6.5231,6.5278,6.5313,6.5344,6.529,6.55,6.552,6.5538,6.5604,6.563,6.532,6.5319,6.5319,6.5318,0,6.4605,6.4698,6.4778,6.4866,6.4923,6.5029,6.5044,6.5103,6.5094,6.5113,6.5242,6.5288,6.5375,6.5412,6.5403,6.5566,6.5541,6.55,6.5422,6.5571,6.5633,6.5658,6.5329,6.5327,6.5325,6.5323,0,0,6.4823,6.4911,6.494,6.498,6.5052,6.5123,6.5228,6.5315,6.5365,6.5428,6.5515,6.5637,6.56,6.5648,6.5645,6.5718,6.5869,6.5668,6.5669,6.5704,6.6052,6.6083,6.6112,6.5851,6.5856,6.586,6.6047,0,6.5001,6.5184,6.5188,6.5356,6.5443,6.5413,6.5504,6.5558,6.5579,6.5655,6.5678,6.5765,6.5709,6.5738,6.5809,6.5836,6.5939,6.5822,6.5933,6.5937,6.5918,6.6145,6.6177,6.6352,6.6072,6.6076,6.6079,0,6.5232,6.5303,6.5481,6.5542,6.5578,6.566,6.5741,6.5814,6.5875,6.5885,6.5941,6.5927,6.6034,6.5955,6.6103,6.6023,6.6069,6.6089,6.6096,6.6106,6.6016,6.6161,6.6407,6.6433,6.6117,6.6114,6.6111,0,6.5375,6.5515,6.564,6.5675,6.5749,6.5807,6.5841,6.5897,6.5949,6.602,6.6054,6.6136,6.6181,6.6245,6.6254,6.6195,6.6404,6.6324,6.6415,6.6415,6.6459,6.6457,6.6717,6.649,6.6489,6.6489,6.6488,0,6.5572,6.5682,6.5705,6.5782,6.5905,6.5909,6.603,6.6059,6.611,6.6192,6.617,6.6247,6.6255,6.6335,6.6343,6.6465,6.6486,6.6497,6.6498,6.6499,6.6498,6.6528,6.6517,6.6496,6.6494,6.6493,6.6491,0,6.5752,6.5772,6.5906,6.5966,6.5984,6.6072,6.6123,6.6197,6.6216,6.6321,6.6345,6.6376,6.647,6.6486,6.6595,6.6601,6.6747,6.6735,6.6727,6.6725,6.6815,6.6807,6.7104,6.7143,6.689,6.6893,6.6895,0,6.5877,6.5961,6.6031,6.6085,6.6121,6.6208,6.6263,6.627,6.6327,6.6404,6.6469,6.6561,6.6634,6.6785,6.6817,6.6901,6.6891,6.699,6.6903,6.6903,6.6893,6.6888,6.6897,6.7006,6.7009,6.7011,6.7013,0,6.6096,6.6103,6.6182,6.6266,6.6331,6.6397,6.646,6.6505,6.6521,6.6586,6.6682,6.6739,6.6853,6.6944,6.7028,6.7062,6.7041,6.704,6.7065,6.7067,6.7059,6.7065,6.6772,6.7033,6.7031,6.7029,6.7028,6.7027,6.6253,6.6327,6.6388,6.6477,6.6526,6.6585,6.6658,6.6688,6.6768,6.6861,6.6861,6.6966,6.7027,6.7138,6.7178,6.7261,6.7229,6.7266,6.7275,6.7284,6.7293,6.7047,6.7276,6.7275,6.7275,6.7274,6.7274,0,6.6471,6.651,6.6592,6.6681,6.6752,6.6727,6.6796,6.6856,6.695,6.7008,6.7082,6.7193,6.7282,6.7323,6.741,6.7469,6.7462,6.7492,6.7487,6.7496,6.7316,6.7285,6.7497,6.7497,6.7496,6.7496,6.7496,6.7496,6.6594,6.6718,6.6732,6.6881,6.6919,6.7022,6.7064,6.7119,6.7166,6.7291,6.7366,6.7392,6.7444,6.7536,6.7617,6.7626,6.7659,6.7695,6.77,6.7531,6.7508,6.7487,6.7458,6.7702,6.7702,6.7873,6.7874,6.7875]},{"header":{"parameterUnit":"m.s-1","parameterCategory":1,"la1":30.2991,"la2":30.254,"lo1":-89.0895,"lo2":-89.0444,"dy":0.0017,"dx":0.0017,"nx":28,"ny":28,"refTime":"2025-03-20T09:00:00:Z","depth":0,"parameterNumber":3,"parameterNumberName":"V-component_of_WINDS"},"data":[0,0,0,0,0,0,0,0,0,0,0,0,0,0,0,0,0,0,0,0,0,0,0,0,0,0,0,0,0,0,0,0,0,0,0,0,0,0,0,0,0,0,0,0,0,0,0,0,0,0,0,0,0,0,0,0,0,0,-7.1235,-7.1237,0,-7.1418,-7.142,-7.1423,-7.1381,-7.1378,-7.1374,-7.1371,-7.1556,-7.1563,-7.1571,0,0,0,0,0,0,0,0,0,0,0,0,0,-7.0849,-7.0856,-7.1235,-7.1238,-7.124,-7.1418,-7.1421,-7.1423,-7.1382,-7.1378,-7.1373,-7.1369,-7.1553,-7.1562,-7.1572,0,0,0,0,0,0,0,0,0,0,0,0,0,-7.1022,-7.0858,-7.1235,-7.1241,-7.1243,-7.1418,-7.1421,-7.1424,-7.1383,-7.1377,-7.1372,-7.1367,-7.155,-7.1562,-7.1574,-7.1752,0,0,-7.1611,-7.1616,0,0,0,0,0,0,0,0,-7.1013,-7.1037,-7.1238,-7.1241,-7.1244,-7.1372,-7.1352,-7.1534,-7.1384,-7.133,-7.1371,-7.1365,-7.1498,-7.1514,-7.156,-7.1761,-7.1769,-7.1612,-7.1619,-7.1625,-7.1628,0,0,0,0,0,0,0,-7.1001,-7.1029,-7.1308,-7.1241,-7.1244,-7.1234,-7.1253,-7.1386,-7.1441,-7.1334,-7.1331,-7.1354,-7.1499,-7.1548,-7.1564,-7.1772,-7.1612,-7.1622,-7.163,-7.1635,-7.213,-7.2136,0,0,0,0,0,0,-7.0986,-7.1019,-7.1302,-7.1313,-7.1113,-7.1245,-7.1266,-7.1336,-7.1439,-7.145,-7.1358,-7.1351,-7.153,-7.155,-7.157,-7.1788,-7.1624,-7.1636,-7.1643,-7.2124,-7.2131,-7.2138,0,0,0,0,0,0,-7.0978,-7.1012,-7.1294,-7.1165,-7.1201,-7.1257,-7.1336,-7.1342,-7.1392,-7.1457,-7.1467,-7.1399,-7.1527,-7.1553,-7.1708,-7.1793,-7.1641,-7.1652,-7.2117,-7.2126,-7.2134,-7.2223,0,0,0,0,0,0,-7.0967,-7.1009,-7.1078,-7.1167,-7.1208,-7.143,-7.1341,-7.1349,-7.1413,-7.1406,-7.1498,-7.1508,-7.1525,-7.169,-7.172,-7.1807,-7.1662,-7.211,-7.2121,-7.2132,-7.2213,-7.2234,-7.2252,0,0,0,0,0,-7.0954,-7.1095,-7.1082,-7.1116,-7.1295,-7.1435,-7.1458,-7.1475,-7.142,-7.149,-7.1532,-7.1505,-7.1779,-7.1706,-7.174,-7.1832,-7.2105,-7.2118,-7.2131,-7.2204,-7.2229,-7.2251,0,0,0,0,0,0,-7.1013,-7.1107,-7.1093,-7.1268,-7.1344,-7.1428,-7.1516,-7.1501,-7.1594,-7.1583,-7.1599,-7.162,-7.1778,-7.182,-7.1738,-7.2011,-7.1934,-7.1954,-7.1978,-7.2003,-7.2022,-7.2008,-7.1672,0,0,0,0,0,-7.1047,-7.1153,-7.1229,-7.1375,-7.1414,-7.1459,-7.152,-7.1527,-7.1606,-7.1638,-7.1691,-7.1768,-7.1872,-7.194,-7.2038,-7.2219,-7.2238,-7.2299,-7.2318,-7.2334,-7.2351,-7.245,-7.2478,-7.2181,-7.2181,-7.218,0,0,-7.1117,-7.1181,-7.1247,-7.1389,-7.1449,-7.1558,-7.1486,-7.1604,-7.1686,-7.1655,-7.1805,-7.1848,-7.1935,-7.2103,-7.218,-7.2143,-7.2438,-7.235,-7.2362,-7.2372,-7.2467,-7.2495,-7.252,-7.219,-7.2188,-7.2187,0,0,-7.13,-7.136,-7.1489,-7.1551,-7.1643,-7.1672,-7.1703,-7.179,-7.1817,-7.1968,-7.1948,-7.2044,-7.2222,-7.2285,-7.2341,-7.255,-7.2529,-7.2582,-7.2684,-7.278,-7.2804,-7.2825,-7.29,-7.2927,-7.2599,-7.2599,-7.26,0,-7.1376,-7.154,-7.1557,-7.1678,-7.1741,-7.172,-7.1851,-7.191,-7.2029,-7.2073,-7.2031,-7.2254,-7.2311,-7.2495,-7.2547,-7.2592,-7.2628,-7.2571,-7.2799,-7.282,-7.284,-7.2912,-7.294,-7.2605,-7.2605,-7.2604,-7.2603,0,-7.1629,-7.1743,-7.1837,-7.1954,-7.2028,-7.2153,-7.2188,-7.2261,-7.2262,-7.2295,-7.2449,-7.2518,-7.263,-7.2674,-7.2675,-7.2859,-7.2833,-7.2795,-7.2718,-7.2874,-7.2942,-7.297,-7.2614,-7.2612,-7.261,-7.2608,0,0,-7.1854,-7.198,-7.2014,-7.2068,-7.2168,-7.2257,-7.2381,-7.2493,-7.2555,-7.2638,-7.2743,-7.2895,-7.2861,-7.2924,-7.2932,-7.3017,-7.318,-7.2969,-7.2971,-7.3006,-7.3387,-7.3415,-7.3447,-7.3167,-7.3172,-7.3176,-7.338,0,-7.2047,-7.2268,-7.2287,-7.2486,-7.2592,-7.2574,-7.2683,-7.2756,-7.2791,-7.2886,-7.2924,-7.3032,-7.2978,-7.3016,-7.3099,-7.3143,-7.3257,-7.3128,-7.3264,-7.3269,-7.3243,-7.3483,-7.3513,-7.3702,-7.3406,-7.3411,-7.3414,0,-7.2302,-7.2395,-7.2604,-7.2691,-7.2736,-7.2834,-7.2938,-7.3029,-7.3112,-7.3132,-7.3203,-7.32,-7.3328,-7.3247,-7.3424,-7.3336,-7.3393,-7.3422,-7.343,-7.3444,-7.3351,-7.3503,-7.3762,-7.3791,-7.3456,-7.3453,-7.345,0,-7.2447,-7.2623,-7.2771,-7.2818,-7.2922,-7.2992,-7.3038,-7.3116,-7.3183,-7.3274,-7.3317,-7.3421,-7.3479,-7.3559,-7.3585,-7.3523,-7.3761,-7.3681,-7.3781,-7.378,-7.3832,-7.3828,-7.4104,-7.3868,-7.3868,-7.3867,-7.3866,0,-7.2661,-7.2789,-7.2838,-7.2929,-7.3073,-7.3094,-7.3236,-7.3279,-7.3349,-7.3448,-7.3438,-7.3531,-7.3559,-7.3657,-7.3678,-7.3822,-7.3847,-7.3866,-7.387,-7.3868,-7.3865,-7.3905,-7.3893,-7.3875,-7.3873,-7.3871,-7.387,0,-7.2846,-7.2884,-7.3044,-7.3131,-7.3156,-7.3258,-7.3332,-7.342,-7.3454,-7.358,-7.361,-7.3663,-7.3778,-7.3812,-7.3949,-7.3963,-7.4132,-7.4124,-7.4105,-7.4105,-7.4203,-7.4193,-7.4515,-7.4558,-7.4293,-7.4295,-7.4297,0,-7.298,-7.3079,-7.3177,-7.3244,-7.3294,-7.34,-7.3468,-7.3493,-7.3564,-7.3667,-7.3743,-7.3856,-7.3949,-7.4134,-7.4184,-7.4289,-7.4284,-7.4389,-7.43,-7.4294,-7.4286,-7.428,-7.4291,-7.4406,-7.4409,-7.4411,-7.4413,0,-7.3215,-7.3229,-7.3328,-7.3434,-7.3516,-7.3601,-7.3682,-7.3736,-7.3772,-7.3853,-7.3971,-7.4043,-7.4185,-7.4298,-7.4406,-7.4453,-7.444,-7.4441,-7.447,-7.4468,-7.4453,-7.4463,-7.4151,-7.4433,-7.4431,-7.443,-7.4429,-7.4428,-7.3379,-7.3467,-7.355,-7.3661,-7.3725,-7.3801,-7.3889,-7.3934,-7.4033,-7.4151,-7.416,-7.4288,-7.4369,-7.4512,-7.4566,-7.4666,-7.4635,-7.4676,-7.4687,-7.4697,-7.4706,-7.4437,-7.4686,-7.4685,-7.4684,-7.4684,-7.4684,0,-7.3614,-7.3667,-7.3769,-7.3883,-7.3971,-7.3952,-7.4041,-7.4115,-7.4228,-7.4306,-7.4398,-7.4534,-7.4644,-7.4704,-7.4814,-7.4883,-7.4879,-7.4911,-7.4906,-7.4917,-7.4727,-7.4691,-7.4912,-7.4912,-7.4912,-7.4912,-7.4912,-7.4912,-7.3746,-7.3894,-7.3918,-7.4098,-7.4149,-7.4276,-7.4329,-7.4399,-7.4461,-7.4615,-7.4707,-7.4745,-7.4816,-7.4931,-7.5031,-7.5046,-7.5087,-7.5122,-7.5133,-7.4954,-7.4931,-7.4908,-7.4875,-7.5131,-7.5131,-7.5316,-7.5317,-7.5319]}]]